COSMOS 2251 DEB, 35829

Orbit data source: Space-Track

COSMOS 2251 DEB, 35829 is space debris in LEO originally from a launch on Wed, 16 Jun 1993 UTC launched from the Plesetsk Missile And Space Complex (PKMTR). The debris from Iridium 33, an American commercial communications satellite, has been tracked extensively since its accidental collision with the defunct Russian satellite Cosmos 2251 in 2009. This event, occurring at high speed in low Earth orbit (LEO), generated thousands of pieces of space debris, significantly increasing the risk of further collisions. The Iridium 33 debris cloud has impacted space traffic management and orbital debris mitigation strategies, making it a subject of ongoing study in space situational awareness.

Loading next visibility...
Identifier
35829, 1993-036ATB
Orbit
LEO
Country
Flag of CISCIS
Related business
Manufacturer
Unknown
Mission
Spacecraft
Bus & Motor
Unknown
Mass
Unknown
Launch date (UTC)
1993-06-16 (32 years ago)
Launch vehicle
Unknown
Launch site
Plesetsk Missile And Space Complex (PKMTR)
Object type
Payload
Rocket body
Debris
Shape & HBR
Unknown shape, 0.1 m
Radar Cross Section
Small (<0.1 m²)

Expand to show TLE details & history
Last TLE update: 2 days ago

TLE from 2 days ago
0 COSMOS 2251 DEB
1 35829U 93036ATB 25302.40068131  .00013907  00000-0  20848-2 0  9997
2 35829  74.0258 185.5682 0010513 246.5601 113.4468 14.74607117871218
Epoch: 2025-10-29T09:36Z
TLE epoch observation values (Epoch: 2025-10-29T09:36:58.865Z)
Latitude
0.00004°
Longitude
3.34858°
Altitude
652.001 km
Speed
7.53 km/s
True Right ascension
12h 22m 16s
True Declination
0° 00' 00"
Sunlit
Object was in daylight at epoch
Visualization orbit readout
Latitude
Unknown
Longitude
Unknown
Altitude
Unknown
Speed
Unknown
Apparent Right ascension
Unknown
Apparent Declination
Unknown
Sunlit
N/A
Visualization observer readout
Local Sidereal Time
07:24:32
Azimuth
Unknown
Elevation
Unknown
Doppler factor
Unknown
Orbital elements
Apogee altitude
651.363 km
Perigee altitude
636.599 km
Semi-major axis
7,022.118 km
Eccentricity
0.00105
Inclination
74.0258°
RAAN
185.5682°
Arg. of periapsis
246.5601°
True anomaly
113.55727°
Mean anomaly
113.4468°
Eccentric anomaly
113.50204°
Mean motion
3.68843 °/min
Orbital period
97.6 mins
BSTAR
0.0020848

Documentation

Showing up to 5 results
|